date,time,SUV Intensity [MED/Hr],UV Index,Daily total [MED],Since Last [MED]
21/03/2022,00:05:59,-0.000,0.0,0.0,0.0
21/03/2022,00:07:08,-0.000,0.0,0.0,0.0
21/03/2022,00:08:08,-0.001,0.0,0.0,0.0
21/03/2022,00:08:59,-0.001,0.0,0.0,0.0
21/03/2022,00:10:00,0.000,0.0,0.0,0.0
21/03/2022,00:11:16,0.000,0.0,0.0,0.0
21/03/2022,00:13:01,0.000,0.0,0.0,0.0
21/03/2022,00:13:59,0.000,0.0,0.0,0.0
21/03/2022,00:15:00,0.000,0.0,0.0,0.0
21/03/2022,00:15:59,0.000,0.0,0.0,0.0
21/03/2022,00:17:00,0.000,0.0,0.0,0.0
21/03/2022,00:18:00,0.000,0.0,0.0,0.0
21/03/2022,00:19:00,0.000,0.0,0.0,0.0
21/03/2022,00:20:00,-0.001,0.0,0.0,0.0
21/03/2022,00:20:59,0.001,0.0,0.0,0.0
21/03/2022,00:22:00,0.000,0.0,0.0,0.0
21/03/2022,00:23:00,0.000,0.0,0.0,0.0
21/03/2022,00:23:59,0.000,0.0,0.0,0.0
21/03/2022,00:25:08,0.000,0.0,0.0,0.0
21/03/2022,00:26:00,0.000,0.0,0.0,0.0
21/03/2022,00:26:59,0.000,0.0,0.0,0.0
21/03/2022,00:28:09,0.000,0.0,0.0,0.0
21/03/2022,00:28:58,0.000,0.0,0.0,0.0
21/03/2022,00:30:00,0.000,0.0,0.0,0.0
21/03/2022,00:31:10,0.000,0.0,0.0,0.0
21/03/2022,00:31:59,0.000,0.0,0.0,0.0
21/03/2022,00:33:00,0.000,0.0,0.0,0.0
21/03/2022,00:33:59,0.000,0.0,0.0,0.0
21/03/2022,00:34:59,0.000,0.0,0.0,0.0
21/03/2022,00:35:59,0.000,0.0,0.0,0.0
21/03/2022,00:36:59,-0.000,0.0,0.0,0.0
21/03/2022,00:38:00,-0.000,0.0,0.0,0.0
21/03/2022,00:39:00,0.000,0.0,0.0,0.0
21/03/2022,00:39:59,0.000,0.0,0.0,0.0
21/03/2022,00:41:08,0.000,0.0,0.0,0.0
21/03/2022,00:42:08,-0.000,0.0,0.0,0.0
21/03/2022,00:43:00,-0.001,0.0,0.0,0.0
21/03/2022,00:44:00,0.000,0.0,0.0,0.0
21/03/2022,00:44:59,0.000,0.0,0.0,0.0
21/03/2022,00:45:59,0.001,0.0,0.0,0.0
21/03/2022,00:47:00,0.000,0.0,0.0,0.0
21/03/2022,00:48:00,0.000,0.0,0.0,0.0
21/03/2022,00:49:08,0.000,0.0,0.0,0.0
21/03/2022,00:49:59,0.000,0.0,0.0,0.0
21/03/2022,00:51:00,0.000,0.0,0.0,0.0
21/03/2022,00:51:59,0.000,0.0,0.0,0.0
21/03/2022,00:52:59,0.000,0.0,0.0,0.0
21/03/2022,00:54:00,0.000,0.0,0.0,0.0
21/03/2022,00:54:59,0.001,0.0,0.0,0.0
21/03/2022,00:55:59,0.001,0.0,0.0,0.0
21/03/2022,00:57:00,0.001,0.0,0.0,0.0
21/03/2022,00:58:00,-0.001,0.0,0.0,0.0
21/03/2022,00:59:08,0.000,0.0,0.0,0.0
21/03/2022,00:59:59,0.000,0.0,0.0,0.0
21/03/2022,01:00:59,0.000,0.0,0.0,0.0
21/03/2022,01:02:08,0.000,0.0,0.0,0.0
21/03/2022,01:03:00,-0.001,0.0,0.0,0.0
21/03/2022,01:04:00,0.000,0.0,0.0,0.0
21/03/2022,01:04:59,0.000,0.0,0.0,0.0
21/03/2022,01:06:00,0.001,0.0,0.0,0.0
21/03/2022,01:07:00,0.001,0.0,0.0,0.0
21/03/2022,01:07:59,0.000,0.0,0.0,0.0
21/03/2022,01:09:01,0.000,0.0,0.0,0.0
21/03/2022,01:10:00,0.001,0.0,0.0,0.0
21/03/2022,01:10:59,0.000,0.0,0.0,0.0
21/03/2022,01:12:08,0.001,0.0,0.0,0.0
21/03/2022,01:13:00,0.000,0.0,0.0,0.0
21/03/2022,01:13:59,0.000,0.0,0.0,0.0
21/03/2022,01:14:59,0.001,0.0,0.0,0.0
21/03/2022,01:15:59,-0.001,0.0,0.0,0.0
21/03/2022,01:17:00,0.000,0.0,0.0,0.0
21/03/2022,01:17:59,-0.001,0.0,0.0,0.0
21/03/2022,01:19:00,0.000,0.0,0.0,0.0
21/03/2022,01:20:00,0.000,0.0,0.0,0.0
21/03/2022,01:21:00,0.001,0.0,0.0,0.0
21/03/2022,01:22:08,-0.001,0.0,0.0,0.0
21/03/2022,01:23:00,0.000,0.0,0.0,0.0
21/03/2022,01:24:00,-0.001,0.0,0.0,0.0
21/03/2022,01:25:00,0.000,0.0,0.0,0.0
21/03/2022,01:26:00,0.001,0.0,0.0,0.0
21/03/2022,01:27:00,0.001,0.0,0.0,0.0
21/03/2022,01:27:59,0.000,0.0,0.0,0.0
21/03/2022,01:29:00,-0.000,0.0,0.0,0.0
21/03/2022,01:30:00,-0.001,0.0,0.0,0.0
21/03/2022,01:31:00,0.000,0.0,0.0,0.0
21/03/2022,01:31:59,0.001,0.0,0.0,0.0
21/03/2022,01:33:00,0.000,0.0,0.0,0.0
21/03/2022,01:34:00,-0.000,0.0,0.0,0.0
21/03/2022,01:35:00,0.000,0.0,0.0,0.0
21/03/2022,01:35:59,-0.001,0.0,0.0,0.0
21/03/2022,01:37:00,0.000,0.0,0.0,0.0
21/03/2022,01:38:00,0.000,0.0,0.0,0.0
21/03/2022,01:38:59,0.001,0.0,0.0,0.0
21/03/2022,01:40:00,0.000,0.0,0.0,0.0
21/03/2022,01:40:59,0.000,0.0,0.0,0.0
21/03/2022,01:42:00,0.001,0.0,0.0,0.0
21/03/2022,01:43:00,0.001,0.0,0.0,0.0
21/03/2022,01:44:00,0.000,0.0,0.0,0.0
21/03/2022,01:44:59,0.001,0.0,0.0,0.0
21/03/2022,01:46:00,0.001,0.0,0.0,0.0
21/03/2022,01:47:00,0.001,0.0,0.0,0.0
21/03/2022,01:47:59,-0.001,0.0,0.0,0.0
21/03/2022,01:49:00,0.001,0.0,0.0,0.0
21/03/2022,01:50:08,0.000,0.0,0.0,0.0
21/03/2022,01:50:59,-0.000,0.0,0.0,0.0
21/03/2022,01:52:00,0.000,0.0,0.0,0.0
21/03/2022,01:53:00,0.000,0.0,0.0,0.0
21/03/2022,01:54:00,0.000,0.0,0.0,0.0
21/03/2022,01:55:00,-0.000,0.0,0.0,0.0
21/03/2022,01:56:00,0.000,0.0,0.0,0.0
21/03/2022,01:57:00,0.001,0.0,0.0,0.0
21/03/2022,01:58:00,0.000,0.0,0.0,0.0
21/03/2022,01:59:00,0.000,0.0,0.0,0.0
21/03/2022,02:00:08,0.000,0.0,0.0,0.0
21/03/2022,02:00:59,0.000,0.0,0.0,0.0
21/03/2022,02:02:00,0.000,0.0,0.0,0.0
21/03/2022,02:03:00,0.000,0.0,0.0,0.0
21/03/2022,02:04:00,0.000,0.0,0.0,0.0
21/03/2022,02:04:59,-0.001,0.0,0.0,0.0
21/03/2022,02:05:59,0.000,0.0,0.0,0.0
21/03/2022,02:07:08,0.001,0.0,0.0,0.0
21/03/2022,02:08:00,0.000,0.0,0.0,0.0
21/03/2022,02:09:00,0.000,0.0,0.0,0.0
21/03/2022,02:10:00,0.000,0.0,0.0,0.0
21/03/2022,02:10:47,0.000,0.0,0.0,0.0
21/03/2022,02:12:01,0.000,0.0,0.0,0.0
21/03/2022,02:13:00,0.000,0.0,0.0,0.0
21/03/2022,02:13:59,-0.001,0.0,0.0,0.0
21/03/2022,02:15:00,0.001,0.0,0.0,0.0
21/03/2022,02:16:00,0.001,0.0,0.0,0.0
21/03/2022,02:17:00,0.000,0.0,0.0,0.0
21/03/2022,02:18:00,0.001,0.0,0.0,0.0
21/03/2022,02:19:17,0.001,0.0,0.0,0.0
21/03/2022,02:21:00,0.001,0.0,0.0,0.0
21/03/2022,02:22:00,0.000,0.0,0.0,0.0
21/03/2022,02:23:00,0.001,0.0,0.0,0.0
21/03/2022,02:24:00,0.001,0.0,0.0,0.0
21/03/2022,02:25:00,0.001,0.0,0.0,0.0
21/03/2022,02:25:59,0.000,0.0,0.0,0.0
21/03/2022,02:27:00,0.000,0.0,0.0,0.0
21/03/2022,02:28:00,-0.001,0.0,0.0,0.0
21/03/2022,02:28:59,0.000,0.0,0.0,0.0
21/03/2022,02:30:00,0.000,0.0,0.0,0.0
21/03/2022,02:31:00,0.000,0.0,0.0,0.0
21/03/2022,02:32:08,-0.000,0.0,0.0,0.0
21/03/2022,02:32:59,0.002,0.0,0.0,0.0
21/03/2022,02:34:00,0.002,0.0,0.0,0.0
21/03/2022,02:35:00,0.001,0.0,0.0,0.0
21/03/2022,02:36:00,0.000,0.0,0.0,0.0
21/03/2022,02:37:00,0.001,0.0,0.0,0.0
21/03/2022,02:38:08,0.001,0.0,0.0,0.0
21/03/2022,02:39:00,-0.000,0.0,0.0,0.0
21/03/2022,02:39:59,0.001,0.0,0.0,0.0
21/03/2022,02:41:08,0.001,0.0,0.0,0.0
21/03/2022,02:42:00,0.001,0.0,0.0,0.0
21/03/2022,02:43:00,0.000,0.0,0.0,0.0
21/03/2022,02:44:08,0.000,0.0,0.0,0.0
21/03/2022,02:45:00,0.000,0.0,0.0,0.0
21/03/2022,02:45:59,0.001,0.0,0.0,0.0
21/03/2022,02:47:00,0.000,0.0,0.0,0.0
21/03/2022,02:49:00,-0.000,0.0,0.0,0.0
21/03/2022,02:50:00,0.000,0.0,0.0,0.0
21/03/2022,02:50:59,0.000,0.0,0.0,0.0
21/03/2022,02:52:00,-0.000,0.0,0.0,0.0
21/03/2022,02:53:00,0.000,0.0,0.0,0.0
21/03/2022,02:54:00,0.001,0.0,0.0,0.0
21/03/2022,02:55:00,0.001,0.0,0.0,0.0
21/03/2022,02:56:00,0.001,0.0,0.0,0.0
21/03/2022,02:57:00,0.000,0.0,0.0,0.0
21/03/2022,02:58:09,-0.000,0.0,0.0,0.0
21/03/2022,02:59:00,0.000,0.0,0.0,0.0
21/03/2022,03:00:00,0.000,0.0,0.0,0.0
21/03/2022,03:01:00,0.001,0.0,0.0,0.0
21/03/2022,03:02:00,0.001,0.0,0.0,0.0
21/03/2022,03:02:59,-0.000,0.0,0.0,0.0
21/03/2022,03:04:00,0.001,0.0,0.0,0.0
21/03/2022,03:05:00,0.001,0.0,0.0,0.0
21/03/2022,03:06:00,0.001,0.0,0.0,0.0
21/03/2022,03:07:00,0.001,0.0,0.0,0.0
21/03/2022,03:08:08,0.001,0.0,0.0,0.0
21/03/2022,03:09:08,0.000,0.0,0.0,0.0
21/03/2022,03:10:00,0.000,0.0,0.0,0.0
21/03/2022,03:11:52,0.001,0.0,0.0,0.0
21/03/2022,03:13:01,0.001,0.0,0.0,0.0
21/03/2022,03:13:59,0.001,0.0,0.0,0.0
21/03/2022,03:15:00,0.001,0.0,0.0,0.0
21/03/2022,03:16:00,0.001,0.0,0.0,0.0
21/03/2022,03:17:00,0.001,0.0,0.0,0.0
21/03/2022,03:18:00,-0.000,0.0,0.0,0.0
21/03/2022,03:19:08,0.002,0.0,0.0,0.0
21/03/2022,03:20:02,0.001,0.0,0.0,0.0
21/03/2022,03:20:59,0.001,0.0,0.0,0.0
21/03/2022,03:22:00,0.000,0.0,0.0,0.0
21/03/2022,03:23:00,0.000,0.0,0.0,0.0
21/03/2022,03:24:00,0.001,0.0,0.0,0.0
21/03/2022,03:25:00,0.001,0.0,0.0,0.0
21/03/2022,03:26:00,0.000,0.0,0.0,0.0
21/03/2022,03:27:00,0.001,0.0,0.0,0.0
21/03/2022,03:27:59,0.001,0.0,0.0,0.0
21/03/2022,03:29:08,-0.000,0.0,0.0,0.0
21/03/2022,03:30:00,0.001,0.0,0.0,0.0
21/03/2022,03:31:00,0.001,0.0,0.0,0.0
21/03/2022,03:32:00,-0.000,0.0,0.0,0.0
21/03/2022,03:33:00,0.001,0.0,0.0,0.0
21/03/2022,03:34:00,0.001,0.0,0.0,0.0
21/03/2022,03:35:00,0.001,0.0,0.0,0.0
21/03/2022,03:36:00,0.000,0.0,0.0,0.0
21/03/2022,03:37:09,0.001,0.0,0.0,0.0
21/03/2022,03:38:00,0.001,0.0,0.0,0.0
21/03/2022,03:39:00,-0.000,0.0,0.0,0.0
21/03/2022,03:40:00,0.000,0.0,0.0,0.0
21/03/2022,03:41:00,0.001,0.0,0.0,0.0
21/03/2022,03:42:00,0.001,0.0,0.0,0.0
21/03/2022,03:43:00,0.001,0.0,0.0,0.0
21/03/2022,03:44:00,0.001,0.0,0.0,0.0
21/03/2022,03:45:00,-0.000,0.0,0.0,0.0
21/03/2022,03:46:00,0.002,0.0,0.0,0.0
21/03/2022,03:47:00,0.001,0.0,0.0,0.0
21/03/2022,03:48:00,0.001,0.0,0.0,0.0
21/03/2022,03:49:01,0.000,0.0,0.0,0.0
21/03/2022,03:50:08,0.001,0.0,0.0,0.0
21/03/2022,03:51:00,0.001,0.0,0.0,0.0
21/03/2022,03:51:59,0.001,0.0,0.0,0.0
21/03/2022,03:53:08,0.001,0.0,0.0,0.0
21/03/2022,03:54:00,0.000,0.0,0.0,0.0
21/03/2022,03:55:00,0.001,0.0,0.0,0.0
21/03/2022,03:55:59,0.000,0.0,0.0,0.0
21/03/2022,03:57:00,0.001,0.0,0.0,0.0
21/03/2022,03:58:00,0.000,0.0,0.0,0.0
21/03/2022,03:59:00,0.001,0.0,0.0,0.0
21/03/2022,04:00:08,0.000,0.0,0.0,0.0
21/03/2022,04:00:59,-0.000,0.0,0.0,0.0
21/03/2022,04:02:00,0.001,0.0,0.0,0.0
21/03/2022,04:03:00,0.001,0.0,0.0,0.0
21/03/2022,04:04:00,-0.000,0.0,0.0,0.0
21/03/2022,04:05:00,0.001,0.0,0.0,0.0
21/03/2022,04:06:00,0.001,0.0,0.0,0.0
21/03/2022,04:07:00,-0.000,0.0,0.0,0.0
21/03/2022,04:08:00,0.001,0.0,0.0,0.0
21/03/2022,04:09:00,0.001,0.0,0.0,0.0
21/03/2022,04:10:00,0.001,0.0,0.0,0.0
21/03/2022,04:11:00,0.001,0.0,0.0,0.0
21/03/2022,04:12:00,0.001,0.0,0.0,0.0
21/03/2022,04:13:00,0.001,0.0,0.0,0.0
21/03/2022,04:14:00,0.001,0.0,0.0,0.0
21/03/2022,04:15:00,0.001,0.0,0.0,0.0
21/03/2022,04:16:00,0.000,0.0,0.0,0.0
21/03/2022,04:17:00,0.000,0.0,0.0,0.0
21/03/2022,04:18:08,0.000,0.0,0.0,0.0
21/03/2022,04:18:58,0.000,0.0,0.0,0.0
21/03/2022,04:20:00,0.001,0.0,0.0,0.0
21/03/2022,04:21:00,0.001,0.0,0.0,0.0
21/03/2022,04:22:00,-0.001,0.0,0.0,0.0
21/03/2022,04:23:00,0.001,0.0,0.0,0.0
21/03/2022,04:24:08,0.001,0.0,0.0,0.0
21/03/2022,04:25:00,0.001,0.0,0.0,0.0
21/03/2022,04:26:00,0.000,0.0,0.0,0.0
21/03/2022,04:27:00,0.001,0.0,0.0,0.0
21/03/2022,04:28:00,0.001,0.0,0.0,0.0
21/03/2022,04:29:00,0.001,0.0,0.0,0.0
21/03/2022,04:30:00,0.000,0.0,0.0,0.0
21/03/2022,04:31:08,0.000,0.0,0.0,0.0
21/03/2022,04:32:00,0.002,0.0,0.0,0.0
21/03/2022,04:33:00,0.001,0.0,0.0,0.0
21/03/2022,04:34:01,0.000,0.0,0.0,0.0
21/03/2022,04:35:00,0.000,0.0,0.0,0.0
21/03/2022,04:36:00,0.001,0.0,0.0,0.0
21/03/2022,04:37:08,0.001,0.0,0.0,0.0
21/03/2022,04:38:00,0.001,0.0,0.0,0.0
21/03/2022,04:39:09,0.000,0.0,0.0,0.0
21/03/2022,04:39:58,0.001,0.0,0.0,0.0
21/03/2022,04:41:00,-0.000,0.0,0.0,0.0
21/03/2022,04:42:01,0.000,0.0,0.0,0.0
21/03/2022,04:43:00,0.000,0.0,0.0,0.0
21/03/2022,04:44:00,0.001,0.0,0.0,0.0
21/03/2022,04:45:00,0.001,0.0,0.0,0.0
21/03/2022,04:46:00,0.001,0.0,0.0,0.0
21/03/2022,04:47:00,0.001,0.0,0.0,0.0
21/03/2022,04:48:00,0.001,0.0,0.0,0.0
21/03/2022,04:49:10,0.000,0.0,0.0,0.0
21/03/2022,04:49:59,0.000,0.0,0.0,0.0
21/03/2022,04:51:01,0.000,0.0,0.0,0.0
21/03/2022,04:52:00,0.001,0.0,0.0,0.0
21/03/2022,04:53:00,0.001,0.0,0.0,0.0
21/03/2022,04:54:00,0.001,0.0,0.0,0.0
21/03/2022,04:55:00,0.001,0.0,0.0,0.0
21/03/2022,04:56:09,0.001,0.0,0.0,0.0
21/03/2022,04:57:00,0.001,0.0,0.0,0.0
21/03/2022,04:58:00,0.001,0.0,0.0,0.0
21/03/2022,04:59:08,0.001,0.0,0.0,0.0
21/03/2022,05:00:01,0.002,0.0,0.0,0.0
21/03/2022,05:01:01,0.001,0.0,0.0,0.0
21/03/2022,05:02:00,0.002,0.0,0.0,0.0
21/03/2022,05:03:00,0.001,0.0,0.0,0.0
21/03/2022,05:04:00,0.001,0.0,0.0,0.0
21/03/2022,05:05:00,0.002,0.0,0.0,0.0
21/03/2022,05:06:00,0.001,0.0,0.0,0.0
21/03/2022,05:07:00,0.002,0.0,0.0,0.0
21/03/2022,05:08:00,0.001,0.0,0.0,0.0
21/03/2022,05:09:00,0.001,0.0,0.0,0.0
21/03/2022,05:10:09,0.001,0.0,0.0,0.0
21/03/2022,05:11:00,0.001,0.0,0.0,0.0
21/03/2022,05:12:00,0.002,0.0,0.0,0.0
21/03/2022,05:13:00,0.001,0.0,0.0,0.0
21/03/2022,05:14:01,0.000,0.0,0.0,0.0
21/03/2022,05:15:00,0.000,0.0,0.0,0.0
21/03/2022,05:16:00,0.001,0.0,0.0,0.0
21/03/2022,05:17:08,0.001,0.0,0.0,0.0
21/03/2022,05:18:00,-0.000,0.0,0.0,0.0
21/03/2022,05:19:00,-0.000,0.0,0.0,0.0
21/03/2022,05:20:09,0.001,0.0,0.0,0.0
21/03/2022,05:21:00,0.001,0.0,0.0,0.0
21/03/2022,05:22:00,0.000,0.0,0.0,0.0
21/03/2022,05:23:01,0.001,0.0,0.0,0.0
21/03/2022,05:24:00,0.002,0.0,0.0,0.0
21/03/2022,05:25:00,0.001,0.0,0.0,0.0
21/03/2022,05:26:00,0.001,0.0,0.0,0.0
21/03/2022,05:27:09,0.001,0.0,0.0,0.0
21/03/2022,05:28:00,0.001,0.0,0.0,0.0
21/03/2022,05:29:02,0.001,0.0,0.0,0.0
21/03/2022,05:30:01,0.001,0.0,0.0,0.0
21/03/2022,05:31:00,0.001,0.0,0.0,0.0
21/03/2022,05:32:00,0.001,0.0,0.0,0.0
21/03/2022,05:33:00,0.001,0.0,0.0,0.0
21/03/2022,05:34:01,0.001,0.0,0.0,0.0
21/03/2022,05:35:00,0.001,0.0,0.0,0.0
21/03/2022,05:36:00,0.001,0.0,0.0,0.0
21/03/2022,05:37:00,0.001,0.0,0.0,0.0
21/03/2022,05:38:09,0.002,0.0,0.0,0.0
21/03/2022,05:39:00,0.000,0.0,0.0,0.0
21/03/2022,05:40:00,0.000,0.0,0.0,0.0
21/03/2022,05:41:00,0.001,0.0,0.0,0.0
21/03/2022,05:42:00,0.002,0.0,0.0,0.0
21/03/2022,05:43:00,0.001,0.0,0.0,0.0
21/03/2022,05:44:00,0.001,0.0,0.0,0.0
21/03/2022,05:45:00,0.001,0.0,0.0,0.0
21/03/2022,05:46:00,0.001,0.0,0.0,0.0
21/03/2022,05:47:00,0.001,0.0,0.0,0.0
21/03/2022,05:48:08,0.001,0.0,0.0,0.0
21/03/2022,05:49:00,0.001,0.0,0.0,0.0
21/03/2022,05:50:00,0.001,0.0,0.0,0.0
21/03/2022,05:51:00,0.001,0.0,0.0,0.0
21/03/2022,05:52:00,0.001,0.0,0.0,0.0
21/03/2022,05:53:01,0.001,0.0,0.0,0.0
21/03/2022,05:54:00,0.001,0.0,0.0,0.0
21/03/2022,05:55:00,0.001,0.0,0.0,0.0
21/03/2022,05:56:00,0.002,0.0,0.0,0.0
21/03/2022,05:57:00,0.002,0.0,0.0,0.0
21/03/2022,05:58:00,0.002,0.0,0.0,0.0
21/03/2022,05:59:01,0.001,0.0,0.0,0.0
21/03/2022,06:00:00,0.002,0.0,0.0,0.0
21/03/2022,06:01:00,0.001,0.0,0.0,0.0
21/03/2022,06:02:00,0.003,0.0,0.0,0.0
21/03/2022,06:03:00,0.002,0.0,0.0,0.0
21/03/2022,06:04:00,0.002,0.0,0.0,0.0
21/03/2022,06:05:00,0.002,0.0,0.0,0.0
21/03/2022,06:06:00,0.002,0.0,0.0,0.0
21/03/2022,06:07:00,0.002,0.0,0.0,0.0
21/03/2022,06:08:00,0.003,0.0,0.0,0.0
21/03/2022,06:09:00,0.003,0.0,0.0,0.0
21/03/2022,06:10:01,0.003,0.0,0.0,0.0
21/03/2022,06:11:00,0.003,0.0,0.0,0.0
21/03/2022,06:12:08,0.002,0.0,0.0,0.0
21/03/2022,06:13:08,0.003,0.0,0.0,0.0
21/03/2022,06:14:00,0.004,0.0,0.0,0.0
21/03/2022,06:15:01,0.004,0.0,0.0,0.0
21/03/2022,06:16:00,0.004,0.0,0.0,0.0
21/03/2022,06:17:00,0.004,0.0,0.0,0.0
21/03/2022,06:18:00,0.004,0.0,0.0,0.0
21/03/2022,06:19:00,0.005,0.0,0.0,0.0
21/03/2022,06:20:08,0.005,0.0,0.0,0.0
21/03/2022,06:21:00,0.005,0.0,0.0,0.0
21/03/2022,06:22:00,0.004,0.0,0.0,0.0
21/03/2022,06:23:00,0.005,0.0,0.0,0.0
21/03/2022,06:24:00,0.006,0.0,0.0,0.0
21/03/2022,06:25:00,0.007,0.0,0.0,0.0
21/03/2022,06:26:00,0.006,0.0,0.0,0.0
21/03/2022,06:27:00,0.007,0.0,0.0,0.0
21/03/2022,06:28:00,0.007,0.0,0.0,0.0
21/03/2022,06:29:00,0.007,0.0,0.0,0.0
21/03/2022,06:30:25,0.008,0.0,0.001,0.001
21/03/2022,06:32:00,0.008,0.0,0.001,0.0
21/03/2022,06:33:00,0.009,0.0,0.001,0.0
21/03/2022,06:34:00,0.009,0.0,0.001,0.0
21/03/2022,06:35:01,0.009,0.0,0.001,0.0
21/03/2022,06:36:00,0.010,0.0,0.001,0.0
21/03/2022,06:37:00,0.011,0.0,0.002,0.001
21/03/2022,06:38:08,0.011,0.0,0.002,0.0
21/03/2022,06:39:00,0.011,0.0,0.002,0.0
21/03/2022,06:40:01,0.011,0.0,0.002,0.0
21/03/2022,06:41:01,0.012,0.0,0.002,0.0
21/03/2022,06:42:00,0.013,0.0,0.003,0.001
21/03/2022,06:43:01,0.014,0.0,0.003,0.0
21/03/2022,06:44:00,0.013,0.0,0.003,0.0
21/03/2022,06:45:00,0.014,0.0,0.003,0.0
21/03/2022,06:46:00,0.014,0.0,0.003,0.0
21/03/2022,06:47:00,0.015,0.0,0.004,0.001
21/03/2022,06:48:00,0.016,0.0,0.004,0.0
21/03/2022,06:49:01,0.015,0.0,0.004,0.0
21/03/2022,06:50:00,0.016,0.0,0.004,0.0
21/03/2022,06:51:00,0.018,0.0,0.005,0.001
21/03/2022,06:52:00,0.018,0.0,0.005,0.0
21/03/2022,06:53:00,0.018,0.0,0.005,0.0
21/03/2022,06:54:01,0.019,0.0,0.006,0.001
21/03/2022,06:55:00,0.020,0.0,0.006,0.0
21/03/2022,06:56:00,0.021,0.0,0.006,0.0
21/03/2022,06:57:00,0.022,0.0,0.007,0.001
21/03/2022,06:58:00,0.022,0.0,0.007,0.0
21/03/2022,06:59:09,0.023,0.0,0.007,0.0
21/03/2022,06:59:59,0.023,0.0,0.008,0.001
21/03/2022,07:01:00,0.025,0.0,0.008,0.0
21/03/2022,07:02:00,0.024,0.0,0.009,0.001
21/03/2022,07:03:01,0.026,0.0,0.009,0.0
21/03/2022,07:04:00,0.026,0.0,0.009,0.0
21/03/2022,07:05:01,0.027,0.0,0.01,0.001
21/03/2022,07:06:00,0.028,0.0,0.01,0.0
21/03/2022,07:07:00,0.029,0.0,0.011,0.001
21/03/2022,07:08:00,0.030,0.0,0.011,0.0
21/03/2022,07:09:08,0.031,0.0,0.012,0.001
21/03/2022,07:10:00,0.032,0.0,0.012,0.0
21/03/2022,07:11:01,0.032,0.0,0.013,0.001
21/03/2022,07:12:00,0.034,0.0,0.013,0.0
21/03/2022,07:13:00,0.034,0.0,0.014,0.001
21/03/2022,07:14:00,0.035,0.0,0.015,0.001
21/03/2022,07:15:00,0.036,0.0,0.015,0.0
21/03/2022,07:16:01,0.038,0.0,0.016,0.001
21/03/2022,07:17:09,0.039,0.0,0.017,0.001
21/03/2022,07:17:59,0.040,0.0,0.017,0.0
21/03/2022,07:19:01,0.040,0.0,0.018,0.001
21/03/2022,07:20:08,0.042,0.0,0.019,0.001
21/03/2022,07:21:00,0.043,0.0,0.019,0.0
21/03/2022,07:22:00,0.044,0.0,0.02,0.001
21/03/2022,07:23:00,0.045,0.0,0.021,0.001
21/03/2022,07:24:01,0.048,0.0,0.021,0.0
21/03/2022,07:25:00,0.048,0.0,0.022,0.001
21/03/2022,07:26:00,0.049,0.0,0.023,0.001
21/03/2022,07:27:01,0.050,0.0,0.024,0.001
21/03/2022,07:28:01,0.051,0.0,0.025,0.001
21/03/2022,07:29:00,0.053,0.0,0.026,0.001
21/03/2022,07:30:09,0.055,0.0,0.027,0.001
21/03/2022,07:31:00,0.055,0.0,0.027,0.0
21/03/2022,07:32:01,0.057,0.0,0.028,0.001
21/03/2022,07:33:00,0.058,0.0,0.029,0.001
21/03/2022,07:34:00,0.061,0.0,0.03,0.001
21/03/2022,07:35:00,0.061,0.0,0.031,0.001
21/03/2022,07:36:00,0.063,0.0,0.032,0.001
21/03/2022,07:37:08,0.064,0.0,0.033,0.001
21/03/2022,07:38:00,0.066,0.0,0.034,0.001
21/03/2022,07:39:00,0.068,0.0,0.036,0.002
21/03/2022,07:40:00,0.070,0.0,0.037,0.001
21/03/2022,07:41:01,0.070,0.0,0.038,0.001
21/03/2022,07:42:00,0.072,0.0,0.039,0.001
21/03/2022,07:43:00,0.074,0.0,0.04,0.001
21/03/2022,07:44:00,0.075,0.0,0.041,0.001
21/03/2022,07:45:09,0.076,0.0,0.043,0.002
21/03/2022,07:45:59,0.079,0.0,0.044,0.001
21/03/2022,07:47:01,0.080,0.0,0.045,0.001
21/03/2022,07:48:01,0.082,0.0,0.047,0.002
21/03/2022,07:49:01,0.083,0.0,0.048,0.001
21/03/2022,07:50:00,0.087,0.0,0.049,0.001
21/03/2022,07:51:00,0.088,0.0,0.051,0.002
21/03/2022,07:52:00,0.089,0.0,0.052,0.001
21/03/2022,07:53:01,0.091,0.0,0.054,0.002
21/03/2022,07:54:00,0.093,0.0,0.055,0.001
21/03/2022,07:55:08,0.095,0.0,0.057,0.002
21/03/2022,07:56:00,0.096,0.0,0.059,0.002
21/03/2022,07:57:00,0.099,0.0,0.06,0.001
21/03/2022,07:58:09,0.101,0.0,0.062,0.002
21/03/2022,07:59:01,0.102,0.0,0.064,0.002
21/03/2022,08:00:01,0.104,0.0,0.065,0.001
21/03/2022,08:01:00,0.106,0.0,0.067,0.002
21/03/2022,08:02:00,0.109,0.0,0.069,0.002
21/03/2022,08:03:01,0.111,0.0,0.071,0.002
21/03/2022,08:04:00,0.113,0.0,0.073,0.002
21/03/2022,08:05:00,0.114,0.0,0.074,0.001
21/03/2022,08:06:09,0.117,0.0,0.077,0.003
21/03/2022,08:06:59,0.119,0.0,0.078,0.001
21/03/2022,08:08:00,0.122,0.0,0.08,0.002
21/03/2022,08:09:00,0.123,0.0,0.082,0.002
21/03/2022,08:10:01,0.125,0.0,0.084,0.002
21/03/2022,08:11:01,0.128,0.0,0.087,0.003
21/03/2022,08:12:00,0.130,0.0,0.089,0.002
21/03/2022,08:13:09,0.131,0.0,0.091,0.002
21/03/2022,08:14:00,0.134,0.0,0.093,0.002
21/03/2022,08:15:00,0.136,0.0,0.095,0.002
21/03/2022,08:16:09,0.138,0.0,0.098,0.003
21/03/2022,08:17:01,0.141,0.0,0.1,0.002
21/03/2022,08:19:02,0.146,0.0,0.105,0.005
21/03/2022,08:20:00,0.148,0.0,0.107,0.002
21/03/2022,08:21:00,0.150,0.0,0.11,0.003
21/03/2022,08:22:01,0.152,0.0,0.112,0.002
21/03/2022,08:23:09,0.155,0.0,0.115,0.003
21/03/2022,08:24:00,0.157,0.0,0.117,0.002
21/03/2022,08:25:00,0.158,0.0,0.12,0.003
21/03/2022,08:26:00,0.159,0.0,0.123,0.003
21/03/2022,08:27:00,0.163,0.0,0.125,0.002
21/03/2022,08:28:01,0.167,0.0,0.128,0.003
21/03/2022,08:29:00,0.170,0.0,0.131,0.003
21/03/2022,08:30:01,0.175,0.0,0.134,0.003
21/03/2022,08:31:01,0.177,0.0,0.137,0.003
21/03/2022,08:32:00,0.181,0.0,0.14,0.003
21/03/2022,08:33:00,0.184,0.0,0.143,0.003
21/03/2022,08:34:10,0.185,0.0,0.146,0.003
21/03/2022,08:34:59,0.188,0.0,0.149,0.003
21/03/2022,08:36:01,0.191,0.0,0.152,0.003
21/03/2022,08:37:00,0.194,0.0,0.155,0.003
21/03/2022,08:38:00,0.197,0.0,0.159,0.004
21/03/2022,08:39:00,0.199,0.0,0.162,0.003
21/03/2022,08:40:00,0.203,0.0,0.165,0.003
21/03/2022,08:41:00,0.205,0.0,0.169,0.004
21/03/2022,08:42:00,0.208,0.0,0.172,0.003
21/03/2022,08:43:01,0.211,0.0,0.176,0.004
21/03/2022,08:44:09,0.213,0.0,0.18,0.004
21/03/2022,08:45:00,0.216,0.0,0.183,0.003
21/03/2022,08:46:01,0.218,1.0,0.186,0.003
21/03/2022,08:47:00,0.221,1.0,0.19,0.004
21/03/2022,08:48:00,0.223,1.0,0.194,0.004
21/03/2022,08:49:01,0.225,1.0,0.197,0.003
21/03/2022,08:50:01,0.231,1.0,0.201,0.004
21/03/2022,08:51:00,0.227,1.0,0.205,0.004
21/03/2022,08:52:00,0.227,1.0,0.209,0.004
21/03/2022,08:53:00,0.232,1.0,0.213,0.004
21/03/2022,08:54:10,0.236,1.0,0.217,0.004
21/03/2022,08:55:00,0.230,1.0,0.22,0.003
21/03/2022,08:56:01,0.240,1.0,0.225,0.005
21/03/2022,08:57:00,0.247,1.0,0.228,0.003
21/03/2022,08:58:01,0.248,1.0,0.232,0.004
21/03/2022,08:59:00,0.243,1.0,0.237,0.005
21/03/2022,09:00:00,0.250,1.0,0.241,0.004
21/03/2022,09:01:00,0.257,1.0,0.245,0.004
21/03/2022,09:02:01,0.247,1.0,0.249,0.004
21/03/2022,09:03:00,0.253,1.0,0.253,0.004
21/03/2022,09:04:09,0.255,1.0,0.258,0.005
21/03/2022,09:05:00,0.256,1.0,0.262,0.004
21/03/2022,09:06:00,0.264,1.0,0.266,0.004
21/03/2022,09:07:01,0.259,1.0,0.27,0.004
21/03/2022,09:08:01,0.261,1.0,0.275,0.005
21/03/2022,09:09:00,0.262,1.0,0.279,0.004
21/03/2022,09:10:00,0.264,1.0,0.284,0.005
21/03/2022,09:11:01,0.272,1.0,0.288,0.004
21/03/2022,09:12:01,0.268,1.0,0.293,0.005
21/03/2022,09:13:00,0.268,1.0,0.297,0.004
21/03/2022,09:14:00,0.273,1.0,0.302,0.005
21/03/2022,09:15:08,0.275,1.0,0.307,0.005
21/03/2022,09:16:00,0.279,1.0,0.311,0.004
21/03/2022,09:17:00,0.284,1.0,0.315,0.004
21/03/2022,09:18:00,0.282,1.0,0.32,0.005
21/03/2022,09:19:00,0.289,1.0,0.325,0.005
21/03/2022,09:20:01,0.292,1.0,0.33,0.005
21/03/2022,09:21:00,0.288,1.0,0.335,0.005
21/03/2022,09:22:00,0.290,1.0,0.34,0.005
21/03/2022,09:23:01,0.291,1.0,0.344,0.004
21/03/2022,09:24:01,0.291,1.0,0.349,0.005
21/03/2022,09:25:09,0.295,1.0,0.355,0.006
21/03/2022,09:26:00,0.297,1.0,0.359,0.004
21/03/2022,09:27:00,0.299,1.0,0.364,0.005
21/03/2022,09:28:01,0.302,1.0,0.369,0.005
21/03/2022,09:29:00,0.316,1.0,0.374,0.005
21/03/2022,09:30:00,0.310,1.0,0.379,0.005
21/03/2022,09:31:01,0.327,1.0,0.385,0.006
21/03/2022,09:32:03,0.321,1.0,0.39,0.005
21/03/2022,09:33:00,0.321,1.0,0.395,0.005
21/03/2022,09:34:00,0.315,1.0,0.401,0.006
21/03/2022,09:35:08,0.320,1.0,0.407,0.006
21/03/2022,09:36:00,0.326,1.0,0.411,0.004
21/03/2022,09:37:00,0.351,1.0,0.417,0.006
21/03/2022,09:38:01,0.364,1.0,0.423,0.006
21/03/2022,09:39:01,0.355,1.0,0.429,0.006
21/03/2022,09:40:01,0.381,1.0,0.435,0.006
21/03/2022,09:41:09,0.381,1.0,0.442,0.007
21/03/2022,09:42:01,0.368,1.0,0.448,0.006
21/03/2022,09:43:00,0.362,1.0,0.454,0.006
21/03/2022,09:44:00,0.369,1.0,0.46,0.006
21/03/2022,09:45:01,0.371,1.0,0.466,0.006
21/03/2022,09:46:01,0.375,1.0,0.472,0.006
21/03/2022,09:46:52,0.395,1.0,0.478,0.006
21/03/2022,09:48:01,0.390,1.0,0.485,0.007
21/03/2022,09:49:01,0.400,1.0,0.492,0.007
21/03/2022,09:50:01,0.423,1.0,0.499,0.007
21/03/2022,09:51:34,0.407,1.0,0.509,0.01
21/03/2022,09:53:01,0.395,1.0,0.519,0.01
21/03/2022,09:54:01,0.403,1.0,0.525,0.006
21/03/2022,09:55:01,0.415,1.0,0.532,0.007
21/03/2022,09:56:09,0.406,1.0,0.54,0.008
21/03/2022,09:57:08,0.415,1.0,0.547,0.007
21/03/2022,09:58:00,0.442,1.0,0.553,0.006
21/03/2022,09:59:01,0.458,1.0,0.561,0.008
21/03/2022,10:00:01,0.432,1.0,0.568,0.007
21/03/2022,10:01:00,0.453,1.0,0.575,0.007
21/03/2022,10:02:00,0.448,1.0,0.583,0.008
21/03/2022,10:03:00,0.459,1.0,0.591,0.008
21/03/2022,10:04:08,0.501,1.0,0.6,0.009
21/03/2022,10:05:00,0.496,1.0,0.607,0.007
21/03/2022,10:06:01,0.492,1.0,0.615,0.008
21/03/2022,10:07:00,0.500,1.0,0.624,0.009
21/03/2022,10:08:01,0.506,1.0,0.632,0.008
21/03/2022,10:09:01,0.512,1.0,0.64,0.008
21/03/2022,10:10:01,0.516,1.0,0.649,0.009
21/03/2022,10:11:00,0.524,1.0,0.658,0.009
21/03/2022,10:12:00,0.527,1.0,0.667,0.009
21/03/2022,10:13:01,0.531,1.0,0.675,0.008
21/03/2022,10:14:01,0.528,1.0,0.684,0.009
21/03/2022,10:15:01,0.522,1.0,0.693,0.009
21/03/2022,10:16:01,0.541,1.0,0.702,0.009
21/03/2022,10:17:01,0.550,1.0,0.711,0.009
21/03/2022,10:18:01,0.548,1.0,0.72,0.009
21/03/2022,10:19:01,0.559,1.0,0.729,0.009